• In Netherlands
  • List of Countries
  • For 7 days
  • Water Temperature
  • Satellite Maps
  • Weather Map
  • Weather Widgets
  • user-avatar
    Login

    Hourly Weather Wavre

    Today, 23 March, Thursday

    Time Temperature Precipitation Wind Pressure Humidity
    00:00 +3°C° 0 mm 3 mps 753 mmHg 90%
    01:00 +3°C° 0 mm 3 mps 753 mmHg 91%
    02:00 +3°C° 0 mm 3 mps 753 mmHg 92%
    03:00 +2°C° 0 mm 3 mps 753 mmHg 93%
    04:00 +2°C° 0 mm 3 mps 754 mmHg 93%
    05:00 +2°C° 0 mm 3 mps 754 mmHg 94%
    06:00 +1°C° 0 mm 4 mps 754 mmHg 94%
    07:00 +4°C° 0 mm 4 mps 754 mmHg 88%
    08:00 +6°C° 0 mm 4 mps 754 mmHg 81%
    09:00 +8°C° 0 mm 5 mps 755 mmHg 75%
    10:00 +9°C° 0 mm 5 mps 755 mmHg 71%
    11:00 +12°C° 0 mm 5 mps 755 mmHg 66%
    12:00 +13°C° 0 mm 5 mps 755 mmHg 62%
    13:00 +13°C° 0 mm 5 mps 755 mmHg 62%
    14:00 +13°C° 0 mm 5 mps 755 mmHg 63%
    15:00 +14°C° 0 mm 5 mps 755 mmHg 63%
    16:00 +12°C° 0 mm 5 mps 755 mmHg 68%
    17:00 +10°C° 0 mm 5 mps 755 mmHg 74%
    18:00 +9°C° 0 mm 5 mps 755 mmHg 79%
    19:00 +8°C° 0 mm 5 mps 756 mmHg 81%
    20:00 +7°C° 0 mm 5 mps 757 mmHg 83%
    21:00 +7°C° 0 mm 6 mps 758 mmHg 85%
    22:00 +6°C° 0 mm 5 mps 758 mmHg 87%
    23:00 +6°C° 0 mm 5 mps 759 mmHg 88%

    Tomorrow, 24 March, Friday

    Time Temperature Precipitation Wind Pressure Humidity
    00:00 +6°C° 0 mm 4 mps 760 mmHg 89%
    01:00 +5°C° 0 mm 4 mps 760 mmHg 90%
    02:00 +5°C° 0 mm 5 mps 760 mmHg 91%
    03:00 +5°C° 0 mm 5 mps 760 mmHg 92%
    04:00 +5°C° 0 mm 4 mps 761 mmHg 93%
    05:00 +4°C° 0 mm 4 mps 761 mmHg 93%
    06:00 +4°C° 0 mm 4 mps 762 mmHg 94%
    07:00 +5°C° 0 mm 4 mps 763 mmHg 89%
    08:00 +6°C° 0 mm 5 mps 763 mmHg 84%
    09:00 +7°C° 0 mm 6 mps 764 mmHg 80%
    10:00 +9°C° 0 mm 6 mps 764 mmHg 76%
    11:00 +10°C° 0 mm 6 mps 764 mmHg 72%
    12:00 +11°C° 0 mm 6 mps 764 mmHg 69%
    13:00 +11°C° 0 mm 6 mps 764 mmHg 68%
    14:00 +13°C° 0 mm 6 mps 764 mmHg 68%
    15:00 +13°C° 0 mm 6 mps 764 mmHg 68%
    16:00 +11°C° 0 mm 6 mps 764 mmHg 72%
    17:00 +10°C° 0 mm 5 mps 764 mmHg 77%
    18:00 +8°C° 0 mm 5 mps 765 mmHg 82%
    19:00 +8°C° 0 mm 5 mps 765 mmHg 83%
    20:00 +7°C° 0 mm 5 mps 766 mmHg 84%
    21:00 +6°C° 0 mm 5 mps 766 mmHg 86%
    22:00 +6°C° 0 mm 5 mps 766 mmHg 87%
    23:00 +5°C° 0 mm 5 mps 767 mmHg 88%

    Day after tomorrow, 25 March, Saturday

    Time Temperature Precipitation Wind Pressure Humidity
    00:00 +5°C° 0 mm 5 mps 767 mmHg 89%
    01:00 +3°C° 0 mm 5 mps 767 mmHg 90%
    02:00 +3°C° 0 mm 5 mps 766 mmHg 90%
    03:00 +2°C° 0 mm 5 mps 766 mmHg 91%
    04:00 +2°C° 0 mm 5 mps 766 mmHg 90%
    05:00 +2°C° 0 mm 5 mps 766 mmHg 90%
    06:00 +2°C° 0 mm 6 mps 766 mmHg 89%
    07:00 +3°C° 0 mm 6 mps 766 mmHg 82%
    08:00 +5°C° 0 mm 7 mps 766 mmHg 74%
    09:00 +6°C° 0 mm 7 mps 765 mmHg 67%
    10:00 +9°C° 0 mm 8 mps 765 mmHg 63%
    11:00 +10°C° 0 mm 8 mps 764 mmHg 59%
    12:00 +11°C° 0 mm 9 mps 764 mmHg 55%
    13:00 +11°C° 0 mm 8 mps 763 mmHg 56%
    14:00 +11°C° 0 mm 8 mps 763 mmHg 57%
    15:00 +11°C° 0 mm 8 mps 762 mmHg 58%
    16:00 +10°C° 0 mm 7 mps 762 mmHg 63%
    17:00 +9°C° 0 mm 6 mps 762 mmHg 67%
    18:00 +7°C° 0 mm 6 mps 762 mmHg 71%
    19:00 +7°C° 0 mm 6 mps 762 mmHg 71%
    20:00 +5°C° 0 mm 6 mps 762 mmHg 71%
    21:00 +5°C° 0 mm 6 mps 763 mmHg 71%
    22:00 +5°C° 0 mm 5 mps 762 mmHg 73%
    23:00 +5°C° 0 mm 5 mps 762 mmHg 75%

    26 March, Sunday

    Time Temperature Precipitation Wind Pressure Humidity
    00:00 +3°C° 0 mm 5 mps 762 mmHg 76%
    01:00 +4°C° 0 mm 4 mps 762 mmHg 78%
    02:00 +3°C° 0 mm 4 mps 762 mmHg 80%
    03:00 +3°C° 0 mm 4 mps 762 mmHg 81%
    04:00 +3°C° 0 mm 4 mps 762 mmHg 82%
    05:00 +1°C° 0 mm 4 mps 762 mmHg 83%
    06:00 +1°C° 0 mm 4 mps 762 mmHg 84%
    07:00 +4°C° 0 mm 4 mps 762 mmHg 80%
    08:00 +6°C° 0 mm 5 mps 762 mmHg 75%
    09:00 +8°C° 0 mm 5 mps 762 mmHg 71%
    10:00 +9°C° 0 mm 5 mps 762 mmHg 69%
    11:00 +12°C° 0 mm 5 mps 761 mmHg 67%
    12:00 +13°C° 0 mm 5 mps 761 mmHg 65%
    13:00 +13°C° 0 mm 5 mps 761 mmHg 67%
    14:00 +13°C° 0 mm 5 mps 761 mmHg 68%
    15:00 +13°C° 0 mm 5 mps 761 mmHg 69%
    16:00 +12°C° 0 mm 5 mps 761 mmHg 74%
    17:00 +11°C° 0 mm 4 mps 761 mmHg 79%
    18:00 +10°C° 0 mm 4 mps 761 mmHg 84%
    19:00 +8°C° 0 mm 4 mps 761 mmHg 87%
    20:00 +7°C° 0 mm 4 mps 761 mmHg 90%
    21:00 +7°C° 0 mm 3 mps 762 mmHg 92%
    22:00 +7°C° 0 mm 3 mps 762 mmHg 93%
    23:00 +7°C° 0 mm 3 mps 762 mmHg 94%

    27 March, Monday

    Time Temperature Precipitation Wind Pressure Humidity
    00:00 +5°C° 0 mm 3 mps 762 mmHg 95%
    01:00 +5°C° 0 mm 3 mps 762 mmHg 95%
    02:00 +5°C° 0 mm 3 mps 762 mmHg 95%
    03:00 +4°C° 0 mm 3 mps 761 mmHg 94%
    04:00 +4°C° 0 mm 3 mps 761 mmHg 94%
    05:00 +4°C° 0 mm 3 mps 761 mmHg 93%
    06:00 +4°C° 0 mm 3 mps 761 mmHg 93%
    07:00 +7°C° 0 mm 3 mps 761 mmHg 87%
    08:00 +9°C° 0 mm 3 mps 761 mmHg 81%
    09:00 +11°C° 0 mm 3 mps 761 mmHg 75%
    10:00 +12°C° 0 mm 3 mps 761 mmHg 71%
    11:00 +14°C° 0 mm 4 mps 761 mmHg 67%
    12:00 +15°C° 0 mm 4 mps 761 mmHg 63%
    13:00 +15°C° 0 mm 4 mps 760 mmHg 62%
    14:00 +17°C° 0 mm 4 mps 760 mmHg 62%
    15:00 +17°C° 0 mm 3 mps 760 mmHg 62%
    16:00 +16°C° 0 mm 3 mps 760 mmHg 69%
    17:00 +13°C° 0 mm 3 mps 760 mmHg 77%
    18:00 +13°C° 0 mm 2 mps 760 mmHg 84%
    19:00 +11°C° 0 mm 3 mps 760 mmHg 86%
    20:00 +10°C° 0 mm 3 mps 760 mmHg 88%
    21:00 +9°C° 0 mm 3 mps 761 mmHg 90%
    22:00 +9°C° 0 mm 3 mps 761 mmHg 90%
    23:00 +8°C° 0 mm 3 mps 760 mmHg 90%

    28 March, Tuesday

    Time Temperature Precipitation Wind Pressure Humidity
    00:00 +8°C° 0 mm 3 mps 760 mmHg 91%
    01:00 +8°C° 0 mm 2 mps 760 mmHg 91%
    02:00 +7°C° 0 mm 2 mps 760 mmHg 91%
    03:00 +7°C° 0 mm 2 mps 760 mmHg 90%
    04:00 +7°C° 0 mm 2 mps 760 mmHg 90%
    05:00 +7°C° 0 mm 2 mps 760 mmHg 89%
    06:00 +7°C° 0 mm 2 mps 760 mmHg 89%
    07:00 +9°C° 0 mm 2 mps 760 mmHg 83%
    08:00 +11°C° 0 mm 3 mps 760 mmHg 78%
    09:00 +13°C° 0 mm 3 mps 760 mmHg 72%
    10:00 +14°C° 0 mm 3 mps 760 mmHg 70%
    11:00 +17°C° 0 mm 3 mps 760 mmHg 67%
    12:00 +18°C° 0 mm 4 mps 760 mmHg 64%
    13:00 +18°C° 0 mm 4 mps 760 mmHg 65%
    14:00 +18°C° 0 mm 4 mps 760 mmHg 66%
    15:00 +18°C° 0 mm 4 mps 759 mmHg 67%
    16:00 +17°C° 0.1 mm 3 mps 759 mmHg 74%
    17:00 +14°C° 0.1 mm 3 mps 760 mmHg 80%
    18:00 +13°C° 0.1 mm 3 mps 760 mmHg 87%
    19:00 +12°C° 0.1 mm 3 mps 760 mmHg 88%
    20:00 +12°C° 0.1 mm 3 mps 760 mmHg 89%
    21:00 +11°C° 0.1 mm 3 mps 760 mmHg 91%
    22:00 +10°C° 0 mm 3 mps 761 mmHg 92%
    23:00 +10°C° 0 mm 3 mps 761 mmHg 92%
    Show more